Zurück zum Katalog

SL-8 R/B

AktivPO
NORAD 32053·ROCKET BODY·🇷🇺 Russia

Gestartet Sep 11, 2007 von Plesetsk Cosmodrome

Loading…

Nächste Überflüge (nächste 24 Stunden)

TLE

AktuellSource: Space-Track

Epoche: Sep 14, 2026, 21:02 UTC

1 32053U 07038B   26257.87675466  .00000014  00000-0 -71343-6 0  9992
2 32053  82.9777 126.5245 0025629 320.5609  55.8955 13.76587685954998

Verfolge SL-8 R/B in Echtzeit mit AllMySat

Download on the App Store